FW5316 Weather Reports


Display with metric or nautical units.
time (UTC)temp
F
wind
direction
speed
MPH
gust
MPH
rain 1hr
in
rain 24hr
in
rain mn
in
humidity
%
barometer
mb
20260831231016 82 260 3.0 11.0 0.00 0.00 0.00 59 1013.5
20260831230016 83 236 5.0 11.0 0.00 0.00 0.00 58 1013.6
20260831225017 84 276 5.0 13.0 0.00 0.00 0.00 57 1013.7
20260831224016 84 261 5.0 11.0 0.00 0.00 0.00 57 1013.8
20260831223037 84 278 6.0 12.0 0.00 0.00 0.00 57 1013.9
20260831222016 85 283 5.0 10.0 0.00 0.00 0.00 56 1014.0
20260831221016 85 235 5.0 12.0 0.00 0.00 0.00 55 1014.1
20260831220038 86 251 5.0 13.0 0.00 0.00 0.00 54 1014.1
20260831215017 87 258 5.0 11.0 0.00 0.00 0.00 53 1014.1
20260831214016 87 287 6.0 12.0 0.00 0.00 0.00 53 1014.1
20260831213037 88 260 5.0 12.0 0.00 0.00 0.00 53 1014.1
20260831212017 87 293 7.0 13.0 0.00 0.00 0.00 53 1014.2
20260831211016 88 256 5.0 12.0 0.00 0.00 0.00 53 1014.3
20260831210016 87 286 6.0 12.0 0.00 0.00 0.00 54 1014.3
20260831205017 89 255 5.0 11.0 0.00 0.00 0.00 52 1014.4
20260831204016 89 286 7.0 15.0 0.00 0.00 0.00 52 1014.5
20260831203039 89 278 8.0 15.0 0.00 0.00 0.00 53 1014.4
20260831202016 89 291 7.0 12.0 0.00 0.00 0.00 53 1014.4
20260831201017 89 258 5.0 11.0 0.00 0.00 0.00 53 1014.4
20260831200016 89 271 5.0 10.0 0.00 0.00 0.00 52 1014.5
20260831195016 89 249 6.0 12.0 0.00 0.00 0.00 53 1014.6
20260831194016 89 238 6.0 11.0 0.00 0.00 0.00 51 1014.7
20260831193016 88 267 5.0 11.0 0.00 0.00 0.00 53 1014.6
20260831192056 88 258 6.0 12.0 0.00 0.00 0.00 53 1014.7
20260831191016 88 266 5.0 12.0 0.00 0.00 0.00 53 1014.8
20260831190016 88 232 6.0 13.0 0.00 0.00 0.00 53 1014.7
20260831185017 88 217 5.0 10.0 0.00 0.00 0.00 53 1014.8
20260831184016 88 247 4.0 9.0 0.00 0.00 0.00 53 1014.8
20260831183016 88 255 4.0 9.0 0.00 0.00 0.00 53 1014.8
20260831182016 88 255 5.0 10.0 0.00 0.00 0.00 54 1014.8
20260831181016 88 259 4.0 11.0 0.00 0.00 0.00 55 1014.8
20260831180016 86 264 3.0 9.0 0.00 0.00 0.00 58 1014.7
20260831175036 84 260 3.0 12.0 0.00 0.00 0.00 60 1014.6
20260831174016 84 189 6.0 11.0 0.00 0.00 0.00 61 1014.5
20260831173016 84 190 8.0 15.0 0.00 0.00 0.00 61 1014.5
20260831172018 83 200 7.0 13.0 0.00 0.00 0.00 61 1014.6
20260831171016 84 178 7.0 13.0 0.00 0.00 0.00 60 1014.5
20260831170016 84 209 4.0 8.0 0.00 0.00 0.00 60 1014.5
20260831165016 83 182 4.0 10.0 0.00 0.00 0.00 62 1014.5
20260831164016 83 178 2.0 11.0 0.00 0.00 0.00 62 1014.4
20260831163016 83 190 5.0 11.0 0.00 0.00 0.00 62 1014.5
20260831162016 82 242 2.0 6.0 0.00 0.00 0.00 63 1014.4
20260831161016 82 116 1.0 6.0 0.00 0.00 0.00 63 1014.5
20260831160016 81 209 1.0 6.0 0.00 0.00 0.00 64 1014.5
20260831155036 81 92 1.0 6.0 0.00 0.00 0.00 64 1014.6
20260831154015 81 171 0.0 5.0 0.00 0.00 0.00 65 1014.5
20260831153036 81 176 3.0 7.0 0.00 0.00 0.00 66 1014.5
20260831152038 80 165 1.0 4.0 0.00 0.00 0.00 67 1014.4
20260831151016 79 217 1.0 5.0 0.00 0.00 0.00 69 1014.4
20260831150036 77 0.0 0.0 0.00 0.00 0.00 72 1014.3
20260831145036 75 0.0 0.0 0.00 0.00 0.00 74 1014.2
20260831144015 73 0.0 0.0 0.00 0.00 0.00 78 1014.1
20260831143056 72 0.0 0.0 0.00 0.00 0.00 80 1014.0
20260831142016 71 0.0 0.0 0.00 0.00 0.00 81 1014.0
20260831141035 71 0.0 0.0 0.00 0.00 0.00 81 1013.9
20260831140035 70 262 0.0 2.0 0.00 0.00 0.00 81 1013.6
20260831135036 70 0.0 0.0 0.00 0.00 0.00 81 1013.4
20260831134016 71 0.0 2.0 0.00 0.00 0.00 80 1013.2
20260831133036 71 258 0.0 2.0 0.00 0.00 0.00 80 1013.1
20260831132017 71 260 1.0 4.0 0.00 0.00 0.00 80 1013.1
20260831131016 71 295 0.0 3.0 0.00 0.00 0.00 80 1013.1
20260831130015 71 0.0 3.0 0.00 0.00 0.00 79 1013.1
20260831125016 72 306 1.0 3.0 0.00 0.00 0.00 79 1013.0
20260831124016 72 0.0 4.0 0.00 0.00 0.00 79 1013.0
20260831123015 72 303 0.0 2.0 0.00 0.00 0.00 79 1013.0
20260831122015 72 0.0 0.0 0.00 0.00 0.00 79 1012.9
20260831121015 72 0.0 4.0 0.00 0.00 0.00 79 1012.9
20260831120015 72 290 2.0 4.0 0.00 0.00 0.00 79 1012.9
20260831115036 72 0.0 0.0 0.00 0.00 0.00 80 1013.0
20260831114015 72 0.0 0.0 0.00 0.00 0.00 80 1012.9
20260831113015 72 0.0 0.0 0.00 0.00 0.00 80 1012.8
20260831112015 72 0.0 2.0 0.00 0.00 0.00 79 1012.9
20260831111015 72 267 0.0 2.0 0.00 0.00 0.00 79 1012.9
20260831110015 72 265 0.0 3.0 0.00 0.00 0.00 79 1012.9
20260831105015 73 280 1.0 3.0 0.00 0.00 0.00 79 1013.0
20260831104015 73 0.0 2.0 0.00 0.00 0.00 79 1013.1
20260831103015 73 337 0.0 3.0 0.00 0.00 0.00 79 1013.1
20260831102016 73 311 2.0 4.0 0.00 0.00 0.00 79 1013.1
20260831101015 73 311 1.0 5.0 0.00 0.00 0.00 79 1013.1
20260831100055 73 295 1.0 4.0 0.00 0.00 0.00 80 1013.1
20260831095015 73 0.0 0.0 0.00 0.00 0.00 80 1013.1
20260831094015 73 0.0 0.0 0.00 0.00 0.00 80 1013.2
20260831093015 73 0.0 0.0 0.00 0.00 0.00 80 1013.1
20260831092015 73 0.0 0.0 0.00 0.00 0.00 80 1013.1
20260831091015 73 0.0 0.0 0.00 0.00 0.00 80 1013.1
20260831090016 73 296 0.0 4.0 0.00 0.00 0.00 81 1013.1
20260831085015 73 280 0.0 6.0 0.00 0.00 0.00 81 1013.2
20260831084015 73 0.0 0.0 0.00 0.00 0.00 81 1013.4
20260831083015 73 252 0.0 3.0 0.00 0.00 0.00 81 1013.3
20260831082015 73 256 1.0 4.0 0.00 0.00 0.00 81 1013.3
20260831081015 73 235 1.0 4.0 0.00 0.00 0.00 81 1013.3
20260831080015 73 241 1.0 3.0 0.00 0.00 0.00 81 1013.3
20260831075015 73 0.0 3.0 0.00 0.00 0.00 82 1013.4
20260831074015 73 0.0 0.0 0.00 0.00 0.00 82 1013.4
20260831073035 73 0.0 0.0 0.00 0.00 0.00 82 1013.4
20260831072015 73 0.0 3.0 0.00 0.00 0.00 82 1013.4
20260831071015 73 225 0.0 5.0 0.00 0.00 0.00 82 1013.4
20260831070015 73 0.0 0.0 0.00 0.00 0.00 83 1013.5
20260831065016 73 0.0 0.0 0.00 0.00 0.00 83 1013.5
20260831064017 73 222 1.0 5.0 0.00 0.00 0.00 83 1013.5
20260831063015 73 248 1.0 3.0 0.00 0.00 0.00 83 1013.4
20260831062015 72 0.0 0.0 0.00 0.00 0.00 84 1013.3
20260831061016 72 0.0 0.0 0.00 0.00 0.00 83 1013.3
20260831060016 72 0.0 0.0 0.00 0.00 0.00 83 1013.4
20260831055036 72 0.0 0.0 0.00 0.00 0.00 83 1013.4
20260831054015 73 0.0 0.0 0.00 0.00 0.00 83 1013.3
20260831053015 73 0.0 0.0 0.00 0.00 0.00 83 1013.3
20260831052036 73 0.0 0.0 0.00 0.00 0.00 83 1013.3
20260831051015 73 0.0 0.0 0.00 0.00 0.00 82 1013.2
20260831050016 73 259 1.0 3.0 0.00 0.00 0.00 82 1013.2
20260831045035 73 258 0.0 3.0 0.00 0.00 0.00 82 1013.2
20260831044015 73 257 0.0 3.0 0.00 0.00 0.00 82 1013.2
20260831043036 73 252 0.0 3.0 0.00 0.00 0.00 82 1013.2
20260831042015 73 248 1.0 4.0 0.00 0.00 0.00 82 1013.1
20260831041015 73 0.0 2.0 0.00 0.00 0.00 82 1013.1
20260831040015 73 216 1.0 4.0 0.00 0.00 0.00 82 1012.9
20260831035017 74 223 1.0 6.0 0.00 0.00 0.00 82 1012.8
20260831034015 74 210 2.0 5.0 0.00 0.00 0.00 82 1012.7
20260831033016 74 214 2.0 5.0 0.00 0.00 0.00 82 1012.4
20260831032015 74 228 0.0 6.0 0.00 0.00 0.00 81 1012.3
20260831031015 74 200 2.0 5.0 0.00 0.00 0.00 81 1012.2
20260831030015 74 206 3.0 6.0 0.00 0.00 0.00 80 1012.0
20260831025015 74 218 2.0 5.0 0.00 0.00 0.00 80 1012.1
20260831024015 74 201 2.0 8.0 0.00 0.00 0.00 79 1012.1
20260831023015 75 183 3.0 7.0 0.00 0.00 0.00 79 1012.1
20260831022035 75 199 3.0 6.0 0.00 0.00 0.00 78 1012.0
20260831021015 75 187 4.0 7.0 0.00 0.00 0.00 78 1012.0
20260831020015 75 185 4.0 7.0 0.00 0.00 0.00 77 1012.0
20260831015015 76 196 5.0 7.0 0.00 0.00 0.00 76 1012.0
20260831014015 76 196 4.0 8.0 0.00 0.00 0.00 75 1011.9
20260831013015 77 209 3.0 7.0 0.00 0.00 0.00 75 1012.0
20260831012035 77 194 4.0 7.0 0.00 0.00 0.00 75 1012.0
20260831011035 77 200 5.0 10.0 0.00 0.00 0.00 74 1012.0
20260831010015 77 213 4.0 10.0 0.00 0.00 0.00 74 1012.0
20260831005015 78 203 5.0 11.0 0.00 0.00 0.00 74 1012.0
20260831004015 78 183 6.0 11.0 0.00 0.00 0.00 74 1012.0
20260831003015 78 197 6.0 14.0 0.00 0.00 0.00 73 1012.0
20260831002015 79 206 7.0 14.0 0.00 0.00 0.00 72 1012.1
20260831001015 79 220 6.0 13.0 0.00 0.00 0.00 72 1011.9
20260831000015 80 209 6.0 13.0 0.00 0.00 0.00 71 1011.8
20260830235015 80 208 6.0 13.0 0.00 0.00 0.00 71 1012.0
20260830234017 81 204 7.0 13.0 0.00 0.00 0.00 70 1012.0
20260830233017 81 202 5.0 15.0 0.00 0.00 0.00 70 1012.1
20260830232018 81 206 6.0 14.0 0.00 0.00 0.00 69 1012.1